Weather History for KCTB - November, 2011

Change the Weather History Date:

Tuesday, November 1, 2011

  Actual Average Record
Temperature  
Mean Temperature 32 °F 36 °F  
Max Temperature 38 °F 48 °F 72 °F (1947)
Min Temperature 26 °F 25 °F -17 °F (1935)
Degree Days  
Heating Degree Days 33 29  
Month to date heating degree days 33 29  
Since 1 July heating degree days 996 1253  
Cooling Degree Days 0 0  
Month to date cooling degree days 0 0  
Year to date cooling degree days 151 162  
Moisture  
Dew Point 21 °F    
Average Humidity 65    
Maximum Humidity 81    
Minimum Humidity 49    
Precipitation  
Precipitation T in 0.01 in 0.24 in (2014)
Month to date precipitation T 0.01  
Year to date precipitation 5.93 10.33  
Snow  
Snow 0.00 in - - ()
Snow Depth 0.00 in    
Sea Level Pressure  
Sea Level Pressure 30.30 in    
Wind  
Wind Speed 10 mph (WNW)    
Max Wind Speed 20 mph    
Max Gust Speed 23 mph    
Visibility 9 miles    
Events Snow    
T = Trace of Precipitation, MM = Missing Value Source: NWS Daily Summary

Daily Weather History Graph

Daily Weather History Graph

Search for Another Location

Airport or City:

Trip Planner

Search our weather history database for the weather conditions in past years. The results will help you decide how hot, cold, wet, or windy it might be!

Date:

Astronomy

Nov. 01, 2011 Rise Set
Actual Time 8:15 AM MDT 6:09 PM MDT
Civil Twilight 7:42 AM MDT 6:42 PM MDT
Nautical Twilight 7:05 AM MDT 7:19 PM MDT
Astronomical Twilight 6:29 AM MDT 7:56 PM MDT
Moon 2:09 PM MDT (11/1) 11:53 PM MDT (11/1)
Length of Visible Light 11h 00m
Length of Day
9h 54m
Waxing Crescent, 40% of the Moon is Illuminated
Nov 1
Waxing Crescent
Nov 2
First Quarter
Nov 10
Full
Nov 18
Last Quarter
Nov 24
New

Hourly Weather History & Observations

Time (MDT) Temp. Windchill Dew Point Humidity Pressure Visibility Wind Dir Wind Speed Gust Speed Precip Events Conditions
12:56 AM 33.1 °F 22.6 °F 23.0 °F 66% 30.10 in 10.0 mi West 16.1 mph - N/A   Clear
1:56 AM 30.0 °F 21.1 °F 23.0 °F 75% 30.13 in 10.0 mi WNW 10.4 mph - N/A   Clear
2:56 AM 28.9 °F 19.8 °F 23.0 °F 78% 30.14 in 10.0 mi WNW 10.4 mph - N/A   Mostly Cloudy
3:56 AM 27.0 °F 17.3 °F 21.0 °F 78% 30.16 in 10.0 mi WNW 10.4 mph - N/A   Mostly Cloudy
4:56 AM 27.0 °F 16.1 °F 19.9 °F 75% 30.19 in 10.0 mi NW 12.7 mph - N/A   Mostly Cloudy
5:56 AM 28.0 °F 17.5 °F 19.0 °F 69% 30.20 in 10.0 mi NW 12.7 mph - N/A   Mostly Cloudy
6:56 AM 28.4 °F 19.1 °F 17.6 °F 64% 30.14 in 10.0 mi NNW 10.4 mph - N/A   Overcast
7:56 AM 28.9 °F 21.1 °F 17.1 °F 61% 30.25 in 10.0 mi North 8.1 mph - N/A   Overcast
8:56 AM 28.9 °F 21.1 °F 18.0 °F 64% 30.29 in 10.0 mi NNW 8.1 mph - N/A   Overcast
9:56 AM 32.0 °F 25.6 °F 16.0 °F 52% 30.32 in 10.0 mi NNW 6.9 mph - N/A   Overcast
10:56 AM 34.0 °F 24.6 °F 18.0 °F 52% 30.35 in 10.0 mi NNW 13.8 mph - N/A   Overcast
11:14 AM 30.2 °F 18.9 °F 24.8 °F 80% 30.27 in 2.5 mi NW 16.1 mph - 0.00 in Snow Light Snow
11:30 AM 30.2 °F 20.2 °F 24.8 °F 80% 30.28 in 5.0 mi NW 12.7 mph - 0.00 in Snow Light Snow
11:56 AM 30.0 °F 20.0 °F 25.0 °F 82% 30.39 in 3.0 mi NNW 12.7 mph - 0.00 in Snow Light Snow
12:02 PM 30.2 °F 20.8 °F 24.8 °F 80% 30.29 in 1.8 mi NW 11.5 mph - 0.00 in Snow Light Snow
12:12 PM 30.2 °F 22.6 °F 26.6 °F 86% 30.29 in 3.0 mi WNW 8.1 mph - 0.00 in Snow Light Snow
12:24 PM 30.2 °F 21.3 °F 26.6 °F 86% 30.30 in 9.0 mi WNW 10.4 mph - 0.00 in   Overcast
12:56 PM 33.1 °F 26.1 °F 26.1 °F 75% 30.39 in 10.0 mi WNW 8.1 mph - 0.00 in   Overcast
1:56 PM 35.6 °F 30.7 °F 23.0 °F 60% 30.30 in 10.0 mi WNW 5.8 mph - N/A   Scattered Clouds
2:38 PM 35.6 °F 29.9 °F 23.0 °F 60% 30.29 in 10.0 mi WSW 6.9 mph - N/A   Mostly Cloudy
2:56 PM 35.6 °F 28.6 °F 21.2 °F 56% 30.29 in 10.0 mi WSW 9.2 mph - N/A   Mostly Cloudy
3:03 PM 35.6 °F 28.6 °F 19.4 °F 52% 30.30 in 10.0 mi West 9.2 mph - N/A   Scattered Clouds
3:56 PM 37.9 °F 30.9 °F 19.9 °F 48% 30.39 in 10.0 mi WSW 10.4 mph - N/A   Scattered Clouds
4:56 PM 36.0 °F 28.0 °F 19.0 °F 50% 30.40 in 10.0 mi WSW 11.5 mph - N/A   Partly Cloudy
5:56 PM 30.9 °F 25.2 °F 17.1 °F 57% 30.41 in 10.0 mi SW 5.8 mph - N/A   Clear
6:56 PM 28.9 °F 23.9 °F 17.1 °F 61% 30.43 in 10.0 mi WSW 4.6 mph - N/A   Clear
7:56 PM 26.1 °F 17.6 °F 17.1 °F 69% 30.45 in 10.0 mi SW 8.1 mph - N/A   Clear
8:56 PM 26.1 °F 16.2 °F 17.1 °F 69% 30.45 in 10.0 mi WSW 10.4 mph - N/A   Clear
9:56 PM 24.8 °F 15.3 °F 15.8 °F 69% 30.32 in 10.0 mi WSW 9.2 mph - N/A   Clear
10:56 PM 25.0 °F 15.5 °F 16.0 °F 69% 30.43 in 10.0 mi WSW 9.2 mph - N/A   Clear
11:56 PM 26.1 °F 15.6 °F 16.0 °F 66% 30.42 in 10.0 mi WSW 11.5 mph - N/A   Clear